When you browse on this site, cookies collect data to enhance your experience and personalize the content and advertising you see.
Visit our Privacy Policy to learn more. By continuing to use the site, you agree to this use of cookies and data.
  • En España
  • Lista de países
  • Para 7 días
  • Temperatura del agua
  • Mapa Satelital
  • El tiempo en el mapa
  • Informadores
  • user-avatar
    Iniciar sesión

    Tiempo cada hora Vinkovcy

    Hoy, 21 Abril, Domingo

    Tiempo Temperatura Precipitaciones Viento Presión Humedad
    00:00 +11°C° 0 mm 1 mps 762 mmHg 57%
    01:00 +9°C° 0 mm 2 mps 761 mmHg 56%
    02:00 +10°C° 0 mm 1 mps 761 mmHg 57%
    03:00 +10°C° 0 mm 1 mps 761 mmHg 58%
    04:00 +9°C° 0 mm 1 mps 760 mmHg 59%
    05:00 +10°C° 0 mm 1 mps 760 mmHg 59%
    06:00 +11°C° 0 mm 1 mps 760 mmHg 59%
    07:00 +13°C° 0 mm 1 mps 760 mmHg 58%
    08:00 +15°C° 0 mm 1 mps 760 mmHg 53%
    09:00 +17°C° 0 mm 2 mps 759 mmHg 48%
    10:00 +19°C° 0 mm 2 mps 759 mmHg 42%
    11:00 +20°C° 0 mm 2 mps 759 mmHg 40%
    12:00 +22°C° 0 mm 1 mps 758 mmHg 37%
    13:00 +23°C° 0 mm 1 mps 758 mmHg 34%
    14:00 +23°C° 0 mm 1 mps 757 mmHg 34%
    15:00 +22°C° 0 mm 1 mps 757 mmHg 33%
    16:00 +22°C° 0 mm 1 mps 757 mmHg 33%
    17:00 +20°C° 0 mm 1 mps 756 mmHg 38%
    18:00 +18°C° 0 mm 1 mps 756 mmHg 43%
    19:00 +15°C° 0 mm 1 mps 756 mmHg 47%
    20:00 +14°C° 0 mm 1 mps 756 mmHg 50%
    21:00 +14°C° 0 mm 1 mps 756 mmHg 53%
    22:00 +13°C° 0 mm 1 mps 756 mmHg 55%
    23:00 +12°C° 0 mm 1 mps 756 mmHg 58%

    Mañana, 22 Abril, Lunes

    Tiempo Temperatura Precipitaciones Viento Presión Humedad
    00:00 +12°C° 0 mm 1 mps 756 mmHg 61%
    01:00 +11°C° 0 mm 1 mps 756 mmHg 64%
    02:00 +11°C° 0 mm 1 mps 755 mmHg 65%
    03:00 +10°C° 0 mm 1 mps 755 mmHg 67%
    04:00 +10°C° 0 mm 1 mps 755 mmHg 68%
    05:00 +11°C° 0 mm 1 mps 755 mmHg 67%
    06:00 +12°C° 0 mm 1 mps 754 mmHg 66%
    07:00 +13°C° 0 mm 1 mps 754 mmHg 65%
    08:00 +15°C° 0 mm 1 mps 754 mmHg 59%
    09:00 +19°C° 0 mm 1 mps 754 mmHg 53%
    10:00 +21°C° 0 mm 1 mps 753 mmHg 47%
    11:00 +21°C° 0 mm 2 mps 753 mmHg 43%
    12:00 +23°C° 0 mm 2 mps 752 mmHg 40%
    13:00 +24°C° 0 mm 2 mps 752 mmHg 36%
    14:00 +24°C° 0 mm 2 mps 751 mmHg 38%
    15:00 +24°C° 0 mm 2 mps 751 mmHg 39%
    16:00 +24°C° 0 mm 3 mps 750 mmHg 41%
    17:00 +21°C° 0 mm 3 mps 750 mmHg 47%
    18:00 +19°C° 0 mm 3 mps 750 mmHg 53%
    19:00 +17°C° 0 mm 3 mps 750 mmHg 60%
    20:00 +15°C° 0 mm 4 mps 750 mmHg 62%
    21:00 +15°C° 0 mm 4 mps 750 mmHg 64%
    22:00 +14°C° 0 mm 5 mps 750 mmHg 66%
    23:00 +14°C° 0 mm 5 mps 750 mmHg 66%

    Pasado mañana, 23 Abril, Martes

    Tiempo Temperatura Precipitaciones Viento Presión Humedad
    00:00 +13°C° 0 mm 5 mps 750 mmHg 66%
    01:00 +13°C° 0 mm 5 mps 750 mmHg 66%
    02:00 +11°C° 0.5 mm 6 mps 750 mmHg 73%
    03:00 +11°C° 0.5 mm 7 mps 750 mmHg 79%
    04:00 +10°C° 0.5 mm 7 mps 750 mmHg 86%
    05:00 +10°C° 0.1 mm 8 mps 750 mmHg 84%
    06:00 +10°C° 0.1 mm 9 mps 750 mmHg 83%
    07:00 +9°C° 0.1 mm 10 mps 750 mmHg 82%
    08:00 +12°C° 0 mm 10 mps 750 mmHg 76%
    09:00 +14°C° 0 mm 10 mps 750 mmHg 70%
    10:00 +17°C° 0 mm 10 mps 750 mmHg 64%
    11:00 +18°C° 0 mm 9 mps 750 mmHg 60%
    12:00 +21°C° 0 mm 9 mps 750 mmHg 57%
    13:00 +22°C° 0 mm 9 mps 750 mmHg 53%
    14:00 +21°C° 0.3 mm 8 mps 750 mmHg 57%
    15:00 +21°C° 0.3 mm 7 mps 749 mmHg 62%
    16:00 +20°C° 0.3 mm 6 mps 749 mmHg 66%
    17:00 +18°C° 0.3 mm 7 mps 750 mmHg 68%
    18:00 +17°C° 0.3 mm 7 mps 750 mmHg 70%
    19:00 +16°C° 0.3 mm 7 mps 750 mmHg 72%
    20:00 +15°C° 0.3 mm 7 mps 751 mmHg 74%
    21:00 +15°C° 0.3 mm 7 mps 751 mmHg 77%
    22:00 +14°C° 0.3 mm 7 mps 752 mmHg 79%
    23:00 +14°C° 0 mm 6 mps 752 mmHg 81%

    24 Abril, Miércoles

    Tiempo Temperatura Precipitaciones Viento Presión Humedad
    00:00 +13°C° 0 mm 6 mps 752 mmHg 82%
    01:00 +13°C° 0 mm 5 mps 753 mmHg 83%
    02:00 +13°C° 0.1 mm 5 mps 753 mmHg 84%
    03:00 +12°C° 0.1 mm 5 mps 753 mmHg 84%
    04:00 +12°C° 0.1 mm 5 mps 753 mmHg 85%
    05:00 +13°C° 0 mm 5 mps 754 mmHg 82%
    06:00 +14°C° 0 mm 6 mps 754 mmHg 78%
    07:00 +14°C° 0 mm 6 mps 754 mmHg 75%
    08:00 +17°C° 0 mm 6 mps 755 mmHg 69%
    09:00 +20°C° 0 mm 6 mps 755 mmHg 63%
    10:00 +22°C° 0 mm 6 mps 755 mmHg 57%
    11:00 +23°C° 0 mm 5 mps 755 mmHg 53%
    12:00 +25°C° 0 mm 5 mps 755 mmHg 50%
    13:00 +26°C° 0 mm 4 mps 755 mmHg 47%
    14:00 +27°C° 0 mm 4 mps 754 mmHg 47%
    15:00 +27°C° 0 mm 3 mps 754 mmHg 46%
    16:00 +27°C° 0 mm 2 mps 754 mmHg 46%
    17:00 +25°C° 0 mm 3 mps 754 mmHg 54%
    18:00 +22°C° 0 mm 3 mps 755 mmHg 62%
    19:00 +20°C° 0 mm 4 mps 755 mmHg 70%
    20:00 +19°C° 0 mm 3 mps 755 mmHg 72%
    21:00 +18°C° 0 mm 3 mps 756 mmHg 73%
    22:00 +17°C° 0 mm 3 mps 756 mmHg 75%
    23:00 +16°C° 0 mm 3 mps 756 mmHg 75%

    25 Abril, Jueves

    Tiempo Temperatura Precipitaciones Viento Presión Humedad
    00:00 +14°C° 0 mm 3 mps 756 mmHg 75%
    01:00 +14°C° 0 mm 3 mps 757 mmHg 75%
    02:00 +14°C° 0 mm 2 mps 757 mmHg 76%
    03:00 +14°C° 0 mm 2 mps 757 mmHg 78%
    04:00 +13°C° 0 mm 2 mps 757 mmHg 79%
    05:00 +15°C° 0 mm 2 mps 757 mmHg 76%
    06:00 +16°C° 0 mm 2 mps 757 mmHg 73%
    07:00 +17°C° 0 mm 2 mps 757 mmHg 70%
    08:00 +19°C° 0 mm 3 mps 757 mmHg 63%
    09:00 +22°C° 0 mm 3 mps 757 mmHg 57%
    10:00 +25°C° 0 mm 3 mps 757 mmHg 50%
    11:00 +26°C° 0 mm 3 mps 757 mmHg 47%
    12:00 +27°C° 0 mm 3 mps 756 mmHg 44%
    13:00 +28°C° 0 mm 3 mps 756 mmHg 41%
    14:00 +28°C° 0 mm 4 mps 756 mmHg 43%
    15:00 +28°C° 0 mm 4 mps 755 mmHg 45%
    16:00 +28°C° 0 mm 4 mps 755 mmHg 47%
    17:00 +26°C° 0 mm 4 mps 755 mmHg 57%
    18:00 +23°C° 0 mm 4 mps 755 mmHg 67%
    19:00 +21°C° 0 mm 4 mps 755 mmHg 77%
    20:00 +20°C° 0 mm 4 mps 755 mmHg 79%
    21:00 +19°C° 0 mm 4 mps 755 mmHg 81%
    22:00 +18°C° 0 mm 4 mps 755 mmHg 83%
    23:00 +17°C° 0 mm 3 mps 755 mmHg 85%

    26 Abril, Viernes

    Tiempo Temperatura Precipitaciones Viento Presión Humedad
    00:00 +17°C° 0 mm 3 mps 755 mmHg 86%
    01:00 +16°C° 0 mm 3 mps 755 mmHg 87%
    02:00 +16°C° 0 mm 2 mps 755 mmHg 87%
    03:00 +15°C° 0 mm 2 mps 754 mmHg 86%
    04:00 +15°C° 0 mm 2 mps 754 mmHg 86%
    05:00 +16°C° 0 mm 2 mps 754 mmHg 81%
    06:00 +17°C° 0 mm 2 mps 754 mmHg 76%
    07:00 +19°C° 0 mm 2 mps 754 mmHg 71%
    08:00 +21°C° 0 mm 2 mps 754 mmHg 63%
    09:00 +24°C° 0 mm 2 mps 754 mmHg 55%
    10:00 +26°C° 0 mm 2 mps 754 mmHg 47%
    11:00 +26°C° 0 mm 1 mps 754 mmHg 45%
    12:00 +27°C° 0 mm 1 mps 753 mmHg 42%
    13:00 +28°C° 0 mm 1 mps 753 mmHg 39%
    14:00 +28°C° 0 mm 1 mps 753 mmHg 39%
    15:00 +28°C° 0 mm 1 mps 752 mmHg 40%
    16:00 +28°C° 0 mm 1 mps 752 mmHg 41%
    17:00 +27°C° 0.2 mm 1 mps 752 mmHg 47%
    18:00 +25°C° 0.2 mm 1 mps 752 mmHg 53%
    19:00 +23°C° 0.2 mm 2 mps 752 mmHg 60%
    20:00 +22°C° 1.4 mm 1 mps 752 mmHg 69%
    21:00 +20°C° 1.4 mm 1 mps 752 mmHg 78%
    22:00 +19°C° 1.4 mm 1 mps 753 mmHg 88%
    23:00 +18°C° 0.8 mm 2 mps 753 mmHg 89%
    Mostrar más